Weather in Orekhovo

Russia / Kaluga Oblast     55°10′40″N   36°57′56″E
temp.,
°C
wind,
m/s
gust,
m/s
humid.,
%
clouds,
%
prec.,
mm/h
press.,
hPa
HPBL,
m
23 september, thu
thu2300:00+6ene2597100 0.0 1013177
03:00+6ene2697100 0.0 1014213
06:00+6ene139995 0.0 1013108
09:00+8e1294100 0.2 1013214
12:00+8s0194100 0.3 1012136
15:00+11ese237570 0.6 1012784
18:00+8ese239099 0.1 101193
21:00+6sse239570 0.1 101052
24 september, fri
fri2400:00+5s269786 0.0 1009129
03:00+5ssw269970 0.0 1008233
06:00+6sse3894100 0.0 1007633
09:00+7sse41086100 0.0 1005885
12:00+8sse51175100 0.3 10031321
15:00+10sse61068100 0.4 10021383
18:00+7sse51287100 0.1 10021267
21:00+7se5992100 0.6 10031059
25 september, sat
sat2500:00+7se4993100 0.1 1003686
03:00+7ese3891100 0.2 1000636
06:00+7sse2497100 0.0 1005239
09:00+8sse2494100 0.0 1006265
12:00+10ssw2384100 0.1 1008622
15:00+11sw1375100 0.1 1008700
18:00+10sw118373 0.2 100924
21:00+8sw2390100 0.3 101065
26 september, sun
sun2600:00+8w259378 0.1 1009176
03:00+6wsw229680 0.1 101030
06:00+7wsw1297100 1.6 101072
09:00+8ese1197100 4.8 101071
12:00+8nnw2595100 0.6 1012374
15:00+8nnw4893100 1.4 1014482
18:00+8nnw399299 0.4 1016588
21:00+8nnw4109385 0.6 1017436
27 september, mon
mon2700:00+7nnw3996100 0.8 1018357
03:00+7n3996100 0.9 1020390
06:00+7n31094100 0.1 1021422
09:00+7n3795100 0.6 1023419
12:00+9nne3789100 0.1 1024663
15:00+9ne3785100 0.4 1025628
18:00+9ne3891100 0.0 1027537
21:00+8ne3894100 0.1 1028547